Pella, IA

4:34 AM CDT on April 22, 2018 (GMT -0500)
Pella Municipal

Weather History for KPEA - March, 2014

Change the Weather History Date:

Wednesday, March 26, 2014

  Actual Average (KOXV) Record (KOXV)
Temperature  
Mean Temperature 34 °F -  
Max Temperature 51 °F 52 °F 81 °F (1989)
Min Temperature 18 °F 32 °F 2 °F (1955)
Degree Days  
Heating Degree Days 30    
Moisture  
Dew Point 18 °F    
Average Humidity 59    
Maximum Humidity 90    
Minimum Humidity 29    
Precipitation  
Precipitation 0.01 in - - ()
Sea Level Pressure  
Sea Level Pressure 30.06 in    
Wind  
Wind Speed 10 mph (SSE)    
Max Wind Speed 28 mph    
Max Gust Speed 43 mph    
Visibility 10 miles    
Events      
Averages and records for this station are not official NWS values.
T = Trace of Precipitation, MM = Missing Value Source: NWS Daily Summary

Daily Weather History Graph

Daily Weather History Graph

Search for Another Location

Airport or City:

Astronomy

Mar. 26, 2014 Rise Set
Actual Time 7:04 AM CDT 7:30 PM CDT
Civil Twilight 6:37 AM CDT 7:58 PM CDT
Nautical Twilight 6:04 AM CDT 8:30 PM CDT
Astronomical Twilight 5:31 AM CDT 9:04 PM CDT
Moon 4:16 AM CDT (3/26) 3:07 PM CDT (3/26)
Length of Visible Light 13h 21m
Length of Day
12h 25m
Waning Crescent, 21% of the Moon is Illuminated
Mar 26
Waning Crescent
Mar 30
New
Apr 7
First Quarter
Apr 15
Full
Apr 22
Last Quarter

Hourly Weather History & Observations

Time (CDT) Temp. Windchill Dew Point Humidity Pressure Visibility Wind Dir Wind Speed Gust Speed Precip Events Conditions
12:15 AM 19.4 °F 10.4 °F 12.9 °F 76% 30.24 in 10.0 mi SE 6.9 mph - N/A   Clear
12:35 AM 19.2 °F 11.3 °F 12.7 °F 76% 30.24 in 10.0 mi SE 5.8 mph - N/A   Clear
12:55 AM 18.7 °F 11.9 °F 12.7 °F 78% 30.24 in 10.0 mi SE 4.6 mph - N/A   Clear
1:15 AM 18.5 °F 10.4 °F 12.9 °F 79% 30.24 in 10.0 mi SE 5.8 mph - N/A   Clear
1:35 AM 18.0 °F 11.1 °F 12.6 °F 79% 30.24 in 10.0 mi SE 4.6 mph - N/A   Clear
1:55 AM 19.0 °F 11.1 °F 13.1 °F 78% 30.24 in 10.0 mi SE 5.8 mph - N/A   Clear
2:15 AM 19.0 °F 11.1 °F 12.7 °F 76% 30.23 in 10.0 mi SE 5.8 mph - N/A   Clear
2:35 AM 18.3 °F 10.2 °F 12.2 °F 77% 30.23 in 10.0 mi SE 5.8 mph - N/A   Clear
2:55 AM 18.3 °F 10.2 °F 12.4 °F 78% 30.22 in 10.0 mi SE 5.8 mph - N/A   Clear
3:15 AM 18.5 °F 9.3 °F 12.6 °F 78% 30.22 in 10.0 mi SE 6.9 mph - N/A   Clear
3:35 AM 18.9 °F 10.8 °F 12.9 °F 78% 30.21 in 10.0 mi SE 5.8 mph - N/A   Clear
3:55 AM 18.5 °F 10.4 °F 12.4 °F 77% 30.21 in 10.0 mi SE 5.8 mph - N/A   Clear
4:15 AM 18.3 °F 10.2 °F 12.4 °F 78% 30.20 in 10.0 mi SE 5.8 mph - N/A   Clear
4:35 AM 18.0 °F 8.7 °F 12.7 °F 80% 30.19 in 10.0 mi SE 6.9 mph - N/A   Clear
4:55 AM 18.5 °F 10.4 °F 13.1 °F 79% 30.19 in 10.0 mi SE 5.8 mph - N/A   Clear
5:15 AM 19.2 °F 11.3 °F 13.5 °F 78% 30.19 in 10.0 mi SE 5.8 mph - N/A   Scattered Clouds
5:35 AM 19.4 °F 10.4 °F 13.5 °F 78% 30.20 in 10.0 mi SSE 6.9 mph - N/A   Clear
5:55 AM 19.8 °F 10.8 °F 13.3 °F 76% 30.20 in 10.0 mi SSE 6.9 mph - N/A   Clear
6:15 AM 19.6 °F 10.6 °F 13.5 °F 77% 30.20 in 10.0 mi SSE 6.9 mph - N/A   Clear
6:35 AM 19.8 °F 9.9 °F 13.5 °F 77% 30.19 in 10.0 mi SE 8.1 mph - N/A   Clear
6:55 AM 19.4 °F 9.5 °F 13.5 °F 78% 30.19 in 10.0 mi SE 8.1 mph - N/A   Clear
7:15 AM 20.1 °F 11.3 °F 13.8 °F 77% 30.19 in 10.0 mi SE 6.9 mph - N/A   Clear
7:35 AM 21.0 °F 11.4 °F 14.0 °F 74% 30.18 in 10.0 mi SE 8.1 mph - N/A   Clear
7:55 AM 22.3 °F 12.2 °F 14.7 °F 73% 30.17 in 10.0 mi SE 9.2 mph - N/A   Clear
8:15 AM 23.9 °F 14.2 °F 14.9 °F 69% 30.16 in 10.0 mi SE 9.2 mph - N/A   Clear
8:35 AM 25.3 °F 15.3 °F 15.3 °F 66% 30.16 in 10.0 mi SSE 10.4 mph - N/A   Clear
8:55 AM 27.5 °F 17.4 °F 16.3 °F 63% 30.15 in 10.0 mi SSE 11.5 mph - N/A   Scattered Clouds
9:15 AM 29.1 °F 18.9 °F 17.1 °F 61% 30.15 in 10.0 mi SSE 12.7 mph - N/A   Scattered Clouds
9:35 AM 30.6 °F 22.4 °F 16.7 °F 56% 30.14 in 10.0 mi SSE 9.2 mph 16.1 mph N/A   Clear
9:55 AM 32.9 °F 24.1 °F 17.4 °F 53% 30.14 in 10.0 mi SSE 11.5 mph 16.1 mph N/A   Clear
10:15 AM 34.5 °F 24.5 °F 15.3 °F 45% 30.13 in 10.0 mi SSE 16.1 mph 20.7 mph N/A   Clear
10:35 AM 35.6 °F 25.9 °F 14.5 °F 42% 30.12 in 10.0 mi SSE 16.1 mph 21.9 mph N/A   Clear
10:55 AM 38.7 °F 29.8 °F 15.4 °F 39% 30.11 in 10.0 mi SSE 16.1 mph 23.0 mph N/A   Scattered Clouds
11:15 AM 40.5 °F 31.5 °F 15.6 °F 37% 30.10 in 10.0 mi SSE 18.4 mph - N/A   Clear
11:35 AM 41.0 °F 31.9 °F 16.2 °F 37% 30.09 in 10.0 mi South 19.6 mph 25.3 mph N/A   Clear
11:55 AM 42.6 °F 34.3 °F 15.6 °F 34% 30.08 in 10.0 mi South 18.4 mph 25.3 mph N/A   Clear
12:15 PM 42.1 °F 32.8 °F 15.4 °F 34% 30.06 in 10.0 mi South 21.9 mph 27.6 mph N/A   Clear
12:35 PM 44.6 °F 36.9 °F 16.3 °F 32% 30.04 in 10.0 mi SSE 18.4 mph 28.8 mph N/A   Clear
12:55 PM 45.7 °F 38.0 °F 16.3 °F 31% 30.02 in 10.0 mi South 19.6 mph 31.1 mph N/A   Clear
1:15 PM 47.3 °F - 16.7 °F 30% 30.00 in 10.0 mi SSE 19.6 mph 29.9 mph 0.01 in   Clear
1:35 PM 48.2 °F - 18.0 °F 30% 29.98 in 10.0 mi SSE 21.9 mph 29.9 mph 0.01 in   Clear
1:55 PM 48.4 °F - 18.0 °F 30% 29.95 in 10.0 mi SSE 23.0 mph 29.9 mph 0.01 in   Clear
2:15 PM 48.9 °F - 18.1 °F 30% 29.94 in 10.0 mi SSE 21.9 mph 28.8 mph N/A   Clear
2:35 PM 49.3 °F - 18.5 °F 30% 29.92 in 10.0 mi SSE 25.3 mph 31.1 mph N/A   Clear
2:55 PM 50.2 °F - 18.7 °F 29% 29.90 in 10.0 mi SSE 24.2 mph 29.9 mph N/A   Clear
3:35 PM 50.0 °F - 18.7 °F 29% 29.88 in 10.0 mi SSE 20.7 mph 33.4 mph N/A   Clear
4:35 PM 50.9 °F - 19.4 °F 29% 29.85 in 10.0 mi South 20.7 mph 28.8 mph N/A   Scattered Clouds
5:15 PM 50.4 °F - 20.3 °F 31% 29.84 in 10.0 mi SSE 15.0 mph 27.6 mph N/A   Scattered Clouds
6:15 PM 51.3 °F - 21.9 °F 32% 29.81 in 10.0 mi South 19.6 mph 27.6 mph N/A   Mostly Cloudy
7:15 PM 49.6 °F - 22.1 °F 34% 29.80 in 10.0 mi South 19.6 mph 27.6 mph N/A   Scattered Clouds
7:55 PM 48.9 °F - 22.5 °F 35% 29.79 in 10.0 mi South 17.3 mph 24.2 mph N/A   Mostly Cloudy
8:55 PM 47.8 °F - 23.0 °F 38% 29.79 in 10.0 mi South 12.7 mph 23.0 mph N/A   Overcast
9:55 PM 48.0 °F - 35.6 °F 62% 29.79 in 10.0 mi SSW 24.2 mph 42.6 mph N/A   Overcast
10:15 PM 46.8 °F - 36.1 °F 67% 29.80 in 10.0 mi SSW 27.6 mph 38.0 mph N/A   Overcast
10:35 PM 45.1 °F 36.4 °F 36.7 °F 72% 29.80 in 10.0 mi SSW 24.2 mph 31.1 mph N/A   Mostly Cloudy
10:55 PM 43.5 °F 35.2 °F 37.4 °F 79% 29.80 in 7.0 mi SSW 19.6 mph 27.6 mph N/A   Light Drizzle
11:15 PM 42.8 °F 34.5 °F 37.6 °F 82% 29.80 in 10.0 mi South 18.4 mph 24.2 mph N/A   Mostly Cloudy
11:35 PM 42.4 °F 34.7 °F 37.6 °F 83% 29.80 in 7.0 mi South 16.1 mph 24.2 mph N/A   Mostly Cloudy
11:55 PM 41.0 °F 33.1 °F 38.3 °F 90% 29.79 in 5.0 mi South 15.0 mph 20.7 mph N/A   Light Drizzle